Location: Newark
(41.0400°S, 62.7845°W)
Time: 03:16:45
(UTC+00:00)

Transit 2A - Pass Details

Date: 30 November 2021
Orbit: 591 x 967 km, 66.7° (Epoch: 20 January)

Event Time Altitude Azimuth Distance (km) Brightness Sun altitude
Rises 16:46:38 0° 336° (NNW) 3,263 9.6 68.3°
Reaches altitude 10° 16:49:09 10° 337° (NNW) 2,281 9.0 68.1°
Maximum altitude 16:54:19 77° 62° (ENE) 728 7.3 67.6°
Drops below altitude 10° 16:59:01 10° 147° (SSE) 2,086 8.2 67.0°
Sets 17:01:14 0° 148° (SSE) 2,962 8.8 66.8°
